Wind_Speed
27 34 38 34 36 35 35 31 29 45 52 55 55 54 54 57 58 62 62 59 61 62 58 56 53 53 52 51 51 49 48 49 46 44 44 44 44 46 45 43 44 44 44
22 31 42 48 49 43 37 38 40 41 48 58 57 58 57 62 62 63 63 64 63 63 60 59 58 55 55 53 54 53 52 52 53 50 47 48 48 49 48 48 48 48 48
24 24 36 54 47 48 49 47 44 54 60 48 39 41 46 55 57 64 67 64 64 63 63 61 60 58 56 52 55 55 55 56 56 54 54 51 50 50 51 50 51 53 53
24 25 27 32 50 49 50 46 61 60 58 59 54 50 45 52 53 61 62 63 64 62 62 61 61 61 58 56 57 57 57 58 57 55 54 56 54 52 51 51 51 54 55
29 28 29 31 29 35 39 47 46 57 61 66 63 61 62 59 56 62 63 57 62 66 67 66 61 59 58 59 56 55 56 59 60 61 61 56 54 55 54 54 54 56 55
34 32 32 32 35 35 36 43 50 63 65 69 68 68 65 65 62 63 56 53 50 59 65 69 65 68 67 66 62 60 61 61 56 59 60 58 59 60 64 62 61 62 66
37 37 35 34 34 36 38 39 40 46 58 56 61 76 67 64 63 68 67 59 67 68 65 67 62 61 60 58 57 56 58 58 64 66 58 56 58 64 62 65 66 61 53
38 39 37 35 34 34 34 35 37 39 43 45 49 64 60 67 65 71 75 72 70 68 70 69 64 59 61 61 57 55 57 62 67 64 63 60 59 60 51 54 54 59 57
35 37 38 35 35 34 34 34 35 36 38 40 44 47 50 61 72 66 74 81 66 76 67 63 69 67 65 68 62 60 59 58 62 63 60 63 62 58 53 54 53 56 59
39 38 36 35 35 36 37 36 36 37 39 40 40 43 44 46 50 52 61 64 68 61 68 75 74 73 73 68 69 68 65 63 65 67 66 64 56 57 59 60 61 62 64
41 41 40 37 35 37 36 36 36 36 37 39 41 41 40 41 42 45 45 43 47 53 57 59 56 64 69 71 71 60 62 67 68 67 66 67 64 60 61 68 68 67 64
40 41 42 40 39 39 39 38 39 39 39 38 38 38 39 40 41 42 40 41 45 46 46 53 53 54 55 61 63 54 55 62 63 61 62 60 59 57 58 59 64 60 58
45 44 41 42 40 42 42 43 43 41 40 40 40 40 41 42 42 41 44 46 46 46 45 46 49 54 52 63 69 80 65 59 68 65 56 59 48 48 53 51 50 47 49
38 45 46 43 43 44 46 47 44 44 43 44 45 44 45 44 43 43 42 44 46 49 48 45 46 42 41 43 52 59 57 54 53 50 49 55 54 50 48 44 43 47 50
39 38 44 46 44 45 46 47 47 46 44 44 44 46 47 46 47 46 46 44 43 44 47 48 48 44 42 39 42 39 48 51 55 57 57 62 61 50 48 49 50 52 53
34 38 41 43 45 46 47 48 48 48 47 46 44 45 47 49 48 46 47 48 46 45 44 44 45 42 42 49 55 55 58 61 57 59 59 55 52 51 52 54 54 54 54
33 35 38 42 43 45 47 47 46 46 45 44 43 43 43 45 47 48 46 47 48 49 48 46 45 45 53 54 52 52 53 55 56 54 54 53 53 55 54 54 55 55 56
38 41 41 42 43 44 46 46 45 43 42 42 43 44 45 45 46 45 45 44 46 48 51 51 50 49 49 52 54 54 52 52 51 49 50 51 52 53 53 53 55 56 55
35 36 36 36 38 39 40 41 42 41 40 40 41 40 40 42 43 43 44 44 44 45 46 47 48 50 50 51 51 52 52 52 52 52 52 51 51 52 54 54 55 56 56
31 31 30 30 29 29 31 33 34 35 34 35 34 35 37 38 40 41 42 43 44 44 44 43 45 44 42 42 43 45 45 46 47 48 49 50 51 51 52 53 54 55 55
28 26 26 24 22 23 25 26 27 28 29 30 32 34 36 36 38 41 45 49 48 49 48 45 44 45 45 46 46 46 46 47 49 51 54 55 55 54 55 55 55 56 56
27 26 27 27 24 25 25 26 26 26 26 27 29 30 31 33 35 37 39 40 42 43 44 43 44 44 46 47 47 47 49 51 52 52 52 51 52 52 52 52 52 52 52
26 26 28 28 27 27 27 27 27 28 28 29 30 31 32 33 34 35 36 38 39 40 41 42 43 45 46 47 48 49 50 50 50 51 50 50 49 48 47 46 46 47 48
30 29 28 28 28 28 28 28 29 30 31 32 33 34 34 35 36 37 38 39 41 42 42 42 43 44 45 46 47 47 48 48 47 47 47 46 46 47 49 51 53 55 58
32 31 30 30 30 30 31 31 31 32 33 34 35 36 37 38 39 41 41 42 42 43 43 43 44 45 45 46 47 48 49 50 49 49 51 54 56 59 60 61 62 64 65
34 34 34 33 34 34 35 36 37 37 37 38 39 40 41 42 43 44 45 45 46 46 47 48 48 49 50 50 51 52 54 55 57 58 59 61 63 64 66 68 70 71 72
Wind_Direction
211 208 207 213 211 213 214 211 210 221 226 229 231 226 226 228 232 231 232 234 238 241 242 245 247 249 250 251 253 254 255 257 259 258 260 259 259 263 266 270 275 278 281
205 215 211 197 206 216 223 218 233 222 234 230 229 225 230 232 233 235 234 237 239 242 241 243 245 247 251 252 255 256 257 257 259 262 262 262 263 264 267 269 272 275 278
210 211 214 213 200 213 213 224 234 217 225 237 231 234 234 238 234 235 236 238 242 244 246 247 248 249 250 253 257 258 257 258 259 261 262 264 266 267 269 272 274 276 278
213 211 216 228 216 203 207 213 219 220 221 224 227 237 235 237 239 237 238 239 240 243 245 247 248 249 250 250 256 259 259 260 260 261 264 266 266 268 270 271 272 274 276
217 213 215 224 226 228 227 228 224 221 224 228 226 234 238 240 236 239 239 242 246 245 245 245 246 247 247 250 254 259 260 261 261 262 260 264 267 269 268 270 272 274 275
220 220 219 218 221 228 229 230 234 230 230 229 229 232 232 231 232 231 240 237 245 245 249 250 248 251 250 252 254 259 261 262 263 265 259 262 266 266 267 265 269 275 276
221 221 222 223 226 222 223 228 231 233 239 235 227 234 238 233 236 235 234 235 235 243 249 248 243 250 249 248 251 257 256 261 262 267 265 264 265 267 268 274 273 274 266
221 224 224 225 228 230 229 230 233 234 237 240 241 241 240 237 240 239 241 243 237 244 246 244 240 241 245 249 253 257 258 259 254 261 262 263 264 264 264 271 268 267 270
229 229 230 228 229 230 231 233 235 239 242 246 247 247 251 248 245 246 237 242 251 245 243 241 249 245 246 248 251 254 256 260 259 256 257 259 258 255 259 264 265 267 269
231 233 235 235 233 234 235 236 236 235 237 241 247 249 253 254 255 258 259 259 260 261 255 248 250 240 248 250 253 257 257 260 262 260 257 254 247 256 257 260 261 263 266
233 237 237 237 240 239 237 239 241 242 242 240 241 244 248 249 255 256 259 257 249 257 260 262 265 261 246 253 251 264 267 266 258 248 248 249 249 248 254 256 259 262 265
233 235 240 240 242 240 241 242 242 243 246 249 252 251 255 260 259 259 259 258 258 259 258 259 261 261 267 257 259 269 274 269 256 249 248 245 247 248 252 256 255 260 268
236 236 236 238 240 241 241 243 246 248 251 252 254 255 256 259 260 261 258 257 260 261 259 257 261 260 262 257 257 261 269 270 263 262 263 264 276 275 273 277 282 283 286
239 233 233 236 239 241 245 249 249 248 250 252 254 256 256 256 257 258 258 260 261 261 263 263 262 262 260 261 262 260 259 256 256 261 270 278 282 283 283 279 273 273 272
241 239 237 239 242 242 243 247 252 254 256 257 255 256 257 257 257 258 259 261 263 264 265 264 263 264 262 249 251 248 254 254 254 262 270 275 277 276 272 267 264 265 265
238 240 241 240 241 243 245 248 251 252 255 257 258 256 257 258 258 259 260 261 260 262 263 264 264 257 258 248 249 257 259 262 267 268 269 267 266 265 262 261 263 264 265
242 248 251 249 248 248 248 249 253 252 254 256 256 255 256 256 257 256 260 262 262 259 259 260 260 255 252 257 263 262 260 260 261 262 261 261 261 262 261 262 264 266 265
253 259 261 258 256 256 255 257 258 258 259 258 257 256 256 256 259 260 261 261 261 263 262 260 260 260 259 259 261 262 262 263 264 264 263 262 263 266 267 267 268 269 270
253 254 254 256 257 257 257 259 260 262 263 261 261 260 258 257 258 259 261 263 261 262 262 260 260 260 260 262 263 265 265 265 264 265 265 266 265 265 267 270 269 270 273
246 250 253 255 257 259 260 260 261 262 260 260 259 258 258 259 256 258 260 260 261 260 261 264 264 264 265 265 265 265 267 268 270 271 272 273 273 272 271 271 272 273 273
241 242 238 239 250 259 262 262 261 260 261 261 261 260 259 258 258 258 255 254 258 262 262 263 263 263 266 267 269 270 271 270 269 269 270 272 273 274 274 275 275 275 276
235 241 241 245 252 256 258 259 258 259 263 264 264 265 265 263 262 262 263 264 264 265 265 264 264 265 266 265 265 266 265 265 266 267 268 269 271 274 275 275 275 275 275
238 243 247 250 252 253 255 258 260 262 263 264 265 266 266 266 266 266 266 266 266 265 265 264 264 264 265 265 265 266 266 267 268 269 270 270 271 272 272 272 272 272 272
247 245 246 248 251 254 255 258 262 263 264 266 267 267 267 267 267 268 268 268 268 267 267 266 267 266 266 266 267 267 268 269 269 269 269 269 268 267 267 269 270 272 272
245 247 251 253 255 258 260 260 261 263 266 268 270 271 272 273 272 271 271 271 271 271 270 269 269 268 267 266 265 265 264 264 264 264 266 267 268 269 269 271 273 274 275
249 251 251 252 254 256 258 260 262 265 267 269 271 272 272 272 272 271 271 271 272 272 272 271 271 271 270 270 270 270 270 271 271 272 272 273 273 274 275 276 278 279 280
Height
5652 5656 5660 5664 5671 5677 5685 5691 5698 5704 5711 5716 5721 5726 5732 5738 5744 5749 5753 5757 5763 5767 5770 5774 5776 5779 5782 5785 5787 5790 5791 5793 5795 5796 5797 5797 5798 5797 5799 5801 5800 5800 5798
5648 5651 5655 5659 5664 5670 5675 5683 5690 5695 5701 5706 5710 5714 5720 5726 5732 5738 5742 5746 5750 5754 5756 5759 5763 5766 5771 5773 5775 5779 5781 5781 5784 5785 5786 5786 5787 5787 5788 5788 5788 5787 5786
5643 5645 5649 5653 5658 5662 5667 5674 5678 5685 5691 5696 5700 5706 5711 5715 5720 5725 5729 5733 5738 5741 5745 5748 5751 5754 5758 5760 5763 5765 5767 5769 5770 5772 5774 5774 5775 5775 5776 5776 5776 5775 5774
5634 5638 5641 5646 5648 5651 5657 5662 5668 5676 5682 5685 5689 5693 5698 5703 5706 5712 5715 5720 5723 5726 5731 5735 5739 5742 5745 5748 5750 5752 5754 5756 5758 5759 5761 5761 5762 5762 5763 5763 5762 5761 5761
5626 5630 5634 5638 5640 5645 5645 5651 5659 5665 5671 5675 5678 5683 5686 5691 5694 5698 5701 5707 5710 5715 5719 5721 5724 5728 5732 5734 5738 5740 5741 5742 5744 5746 5747 5749 5749 5749 5748 5747 5748 5747 5748
5618 5622 5627 5632 5637 5639 5641 5645 5650 5654 5659 5662 5665 5670 5673 5678 5682 5685 5689 5692 5696 5700 5704 5708 5712 5714 5719 5721 5723 5726 5728 5728 5729 5730 5733 5734 5734 5735 5734 5733 5733 5734 5735
5608 5613 5617 5622 5627 5633 5636 5638 5639 5642 5646 5650 5653 5657 5659 5663 5669 5672 5675 5677 5684 5689 5691 5694 5698 5701 5703 5706 5708 5710 5714 5714 5715 5717 5719 5719 5718 5718 5717 5718 5718 5717 5718
5598 5604 5608 5612 5616 5620 5624 5627 5629 5632 5635 5638 5641 5642 5645 5650 5653 5657 5662 5664 5669 5673 5677 5680 5683 5686 5689 5692 5693 5694 5696 5699 5701 5701 5702 5705 5704 5704 5703 5703 5703 5705 5705
5589 5594 5599 5603 5606 5610 5614 5617 5619 5622 5624 5627 5629 5632 5635 5637 5640 5642 5646 5652 5655 5658 5662 5666 5668 5671 5673 5677 5679 5681 5682 5684 5686 5687 5687 5687 5688 5689 5689 5690 5691 5690 5689
5581 5586 5590 5594 5598 5602 5605 5608 5611 5613 5616 5617 5620 5624 5625 5626 5629 5631 5633 5637 5640 5645 5647 5650 5653 5653 5658 5661 5665 5665 5665 5668 5671 5670 5670 5671 5671 5673 5675 5675 5674 5673 5671
5573 5577 5582 5585 5590 5593 5596 5598 5600 5602 5605 5607 5612 5613 5616 5616 5618 5619 5622 5626 5628 5628 5632 5635 5637 5637 5641 5645 5648 5650 5650 5652 5652 5652 5652 5654 5655 5656 5657 5656 5656 5655 5655
5564 5567 5571 5576 5580 5584 5586 5588 5591 5592 5594 5597 5600 5603 5603 5605 5605 5608 5612 5614 5616 5616 5619 5619 5623 5625 5627 5628 5632 5636 5637 5638 5637 5636 5637 5638 5639 5639 5638 5638 5638 5638 5638
5552 5557 5561 5566 5569 5573 5575 5578 5581 5584 5586 5589 5590 5589 5591 5593 5594 5596 5599 5602 5603 5605 5607 5608 5608 5611 5613 5615 5618 5620 5621 5622 5624 5622 5622 5622 5622 5621 5622 5622 5621 5620 5620
5541 5544 5549 5554 5558 5562 5565 5567 5570 5573 5576 5577 5578 5579 5581 5582 5583 5585 5588 5589 5591 5592 5593 5595 5596 5598 5600 5602 5603 5604 5605 5607 5608 5610 5610 5610 5610 5610 5609 5608 5607 5606 5606
5530 5534 5538 5542 5546 5550 5553 5555 5558 5561 5563 5564 5566 5568 5569 5571 5573 5575 5577 5577 5578 5579 5580 5581 5583 5585 5588 5591 5590 5588 5590 5592 5593 5594 5595 5596 5596 5595 5595 5593 5592 5591 5592
5519 5523 5527 5531 5534 5537 5541 5544 5547 5549 5550 5552 5553 5555 5557 5559 5561 5563 5564 5566 5567 5568 5568 5568 5570 5573 5573 5576 5578 5577 5575 5576 5578 5578 5579 5580 5579 5579 5579 5577 5576 5576 5575
5510 5513 5516 5520 5523 5526 5528 5531 5534 5536 5537 5539 5541 5543 5545 5546 5548 5550 5551 5552 5553 5554 5555 5556 5557 5561 5562 5562 5563 5562 5562 5563 5564 5566 5565 5563 5562 5564 5563 5563 5561 5559 5559
5499 5502 5505 5508 5511 5514 5516 5518 5519 5522 5524 5526 5528 5530 5532 5534 5535 5537 5538 5539 5540 5540 5540 5541 5542 5544 5546 5547 5548 5549 5548 5548 5548 5548 5550 5550 5548 5547 5547 5546 5547 5545 5544
5490 5492 5495 5496 5499 5501 5503 5505 5507 5509 5511 5513 5515 5517 5518 5521 5522 5523 5525 5526 5527 5528 5528 5529 5530 5531 5532 5533 5533 5533 5533 5534 5534 5534 5533 5533 5533 5533 5532 5530 5530 5530 5529
5481 5483 5485 5486 5488 5489 5491 5493 5495 5496 5498 5500 5502 5504 5506 5507 5509 5510 5511 5512 5513 5513 5514 5515 5516 5517 5518 5518 5519 5519 5519 5519 5519 5519 5518 5517 5517 5518 5518 5516 5514 5513 5512
5473 5474 5476 5478 5479 5480 5482 5483 5484 5486 5487 5489 5491 5492 5494 5495 5497 5498 5499 5500 5501 5502 5502 5502 5503 5504 5505 5505 5505 5505 5505 5505 5505 5505 5505 5504 5502 5501 5500 5499 5499 5497 5495
5464 5467 5469 5470 5472 5473 5474 5476 5477 5478 5479 5480 5481 5482 5482 5483 5484 5485 5486 5487 5487 5488 5489 5490 5490 5491 5491 5492 5492 5491 5491 5491 5490 5489 5488 5488 5487 5486 5485 5484 5482 5481 5480
5456 5458 5460 5462 5463 5465 5466 5468 5469 5470 5471 5472 5472 5473 5474 5474 5474 5474 5475 5475 5475 5476 5476 5476 5476 5476 5476 5476 5476 5476 5475 5475 5474 5474 5473 5472 5471 5470 5469 5468 5467 5466 5464
5448 5449 5451 5453 5455 5456 5457 5458 5459 5460 5461 5461 5462 5462 5463 5463 5464 5464 5464 5464 5464 5464 5464 5463 5462 5462 5462 5461 5461 5460 5460 5459 5458 5458 5457 5456 5456 5455 5454 5453 5452 5450 5449
5438 5440 5442 5443 5445 5446 5447 5448 5449 5450 5451 5451 5451 5451 5451 5452 5452 5452 5452 5451 5451 5450 5450 5449 5449 5448 5447 5447 5446 5446 5445 5445 5444 5444 5443 5442 5441 5440 5438 5437 5435 5433 5431
5427 5429 5430 5432 5433 5435 5436 5437 5438 5439 5439 5439 5439 5440 5440 5440 5440 5439 5439 5438 5437 5436 5435 5434 5434 5433 5432 5431 5430 5430 5429 5428 5428 5427 5426 5424 5422 5420 5418 5416 5414 5412 5409